Find EGRS IX

NORAD ID: 2861 Int'l Des: 1967-065 Owner: ACE/GIMR Country: US operational
MEOCIRCULARPOLAR

現在のビュー

3D地球を読み込み中...

EGRS IXについて

説明を読み込み中...

次回通過

Passes for default location (London). Set your location on the main map for personalized predictions.

高度履歴

Loading altitude history...

軌道要素

1 02861U 67065A 26150.84779297 -.00000015 00000-0 -10721-1 0 9998
2 02861 89.9767 314.0974 0072799 119.3598 241.4533 8.36661363799608
Epoch: May 30, 2026 • Age: 16 hours

現在のステータス

高度 3823.2 km
速度 6.27 km/s
衛星直下点 12.53°N, 64.83°E
タイプ other

Most Searched